Wetterdaten: Montag, 27.10.2014
Datum Zeit Temp. A. Feuchte A. Luftdruck Regen Wind Richtung Richtung Sonnenschein ET UV Solar Taupunkt Windchill Windben Empfang
27.10.2014 00:00 2,4 C 82 % 1029,0 hPa 0,0 l/m 0,0 km/h (0 Bft) S 181 0 min 0,000 mm 0,0 UV-I 0 W/m -0,4 C 2,4 C 0,0 km/h (0 Bft) 0,00 %
27.10.2014 00:15 2,6 C 87 % 1028,8 hPa 0,0 l/m 0,0 km/h (0 Bft) SO 130 0 min 0,000 mm 0,0 UV-I 0 W/m 0,7 C 2,6 C 0,0 km/h (0 Bft) 0,00 %
27.10.2014 00:30 3,0 C 87 % 1028,8 hPa 0,0 l/m 0,4 km/h (0 Bft) SO 144 0 min 0,000 mm 0,0 UV-I 0 W/m 1,1 C 3,0 C 4,0 km/h (1 Bft) 0,00 %
27.10.2014 00:45 3,3 C 86 % 1028,6 hPa 0,0 l/m 0,7 km/h (0 Bft) SO 125 0 min 0,000 mm 0,0 UV-I 0 W/m 1,2 C 3,3 C 4,0 km/h (1 Bft) 0,00 %
27.10.2014 01:00 3,6 C 86 % 1028,5 hPa 0,0 l/m 0,0 km/h (0 Bft) O-SO 122 0 min 0,000 mm 0,0 UV-I 0 W/m 1,5 C 3,6 C 0,0 km/h (0 Bft) 0,00 %
27.10.2014 01:15 3,9 C 86 % 1028,2 hPa 0,0 l/m 1,4 km/h (1 Bft) SO 136 0 min 0,000 mm 0,0 UV-I 0 W/m 1,8 C 3,9 C 4,0 km/h (1 Bft) 0,00 %
27.10.2014 01:30 4,2 C 87 % 1028,3 hPa 0,0 l/m 0,0 km/h (0 Bft) O-SO 119 0 min 0,000 mm 0,0 UV-I 0 W/m 2,2 C 4,2 C 0,0 km/h (0 Bft) 0,00 %
27.10.2014 01:45 4,3 C 87 % 1027,9 hPa 0,0 l/m 0,4 km/h (0 Bft) SO 131 0 min 0,000 mm 0,0 UV-I 0 W/m 2,3 C 4,3 C 4,0 km/h (1 Bft) 0,00 %
27.10.2014 02:00 4,4 C 87 % 1028,0 hPa 0,0 l/m 0,0 km/h (0 Bft) O-SO 116 0 min 0,000 mm 0,0 UV-I 0 W/m 2,4 C 4,4 C 0,0 km/h (0 Bft) 0,00 %
27.10.2014 02:15 4,4 C 87 % 1027,9 hPa 0,0 l/m 0,0 km/h (0 Bft) O-NO 70 0 min 0,000 mm 0,0 UV-I 0 W/m 2,4 C 4,4 C 0,0 km/h (0 Bft) 0,00 %
27.10.2014 02:30 4,3 C 87 % 1028,1 hPa 0,0 l/m 0,0 km/h (0 Bft) S-SW 208 0 min 0,000 mm 0,0 UV-I 0 W/m 2,3 C 4,3 C 0,0 km/h (0 Bft) 0,00 %
27.10.2014 02:45 4,4 C 86 % 1027,9 hPa 0,0 l/m 0,0 km/h (0 Bft) S 173 0 min 0,000 mm 0,0 UV-I 0 W/m 2,3 C 4,4 C 0,0 km/h (0 Bft) 0,00 %
27.10.2014 03:00 4,4 C 87 % 1027,8 hPa 0,0 l/m 0,0 km/h (0 Bft) O-SO 102 0 min 0,000 mm 0,0 UV-I 0 W/m 2,4 C 4,4 C 0,0 km/h (0 Bft) 0,00 %
27.10.2014 03:15 4,6 C 86 % 1028,0 hPa 0,0 l/m 1,8 km/h (1 Bft) O 91 0 min 0,000 mm 0,0 UV-I 0 W/m 2,5 C 4,6 C 4,0 km/h (1 Bft) 0,00 %
27.10.2014 03:30 4,6 C 86 % 1028,0 hPa 0,0 l/m 0,7 km/h (0 Bft) O 90 0 min 0,000 mm 0,0 UV-I 0 W/m 2,5 C 4,6 C 4,0 km/h (1 Bft) 0,00 %
27.10.2014 03:45 4,7 C 86 % 1027,9 hPa 0,0 l/m 0,4 km/h (0 Bft) O 92 0 min 0,000 mm 0,0 UV-I 0 W/m 2,6 C 4,7 C 4,0 km/h (1 Bft) 0,00 %
27.10.2014 04:00 4,7 C 86 % 1027,8 hPa 0,0 l/m 0,4 km/h (0 Bft) SO 143 0 min 0,000 mm 0,0 UV-I 0 W/m 2,6 C 4,7 C 4,0 km/h (1 Bft) 0,00 %
27.10.2014 04:15 4,8 C 86 % 1027,8 hPa 0,0 l/m 0,0 km/h (0 Bft) S 179 0 min 0,000 mm 0,0 UV-I 0 W/m 2,7 C 4,8 C 0,0 km/h (0 Bft) 0,00 %
27.10.2014 04:30 4,8 C 86 % 1028,0 hPa 0,0 l/m 0,0 km/h (0 Bft) SO 135 0 min 0,000 mm 0,0 UV-I 0 W/m 2,7 C 4,8 C 0,0 km/h (0 Bft) 0,00 %
27.10.2014 04:45 4,9 C 86 % 1028,2 hPa 0,0 l/m 0,0 km/h (0 Bft) S 181 0 min 0,000 mm 0,0 UV-I 0 W/m 2,8 C 4,9 C 0,0 km/h (0 Bft) 0,00 %
27.10.2014 05:00 5,0 C 86 % 1027,9 hPa 0,0 l/m 0,0 km/h (0 Bft) O-SO 115 0 min 0,000 mm 0,0 UV-I 0 W/m 2,9 C 5,0 C 0,0 km/h (0 Bft) 0,00 %
27.10.2014 05:15 5,1 C 86 % 1028,0 hPa 0,0 l/m 0,0 km/h (0 Bft) SO 129 0 min 0,000 mm 0,0 UV-I 0 W/m 3,0 C 5,1 C 0,0 km/h (0 Bft) 0,00 %
27.10.2014 05:30 5,1 C 86 % 1027,9 hPa 0,0 l/m 0,0 km/h (0 Bft) S-SW 206 0 min 0,000 mm 0,0 UV-I 0 W/m 3,0 C 5,1 C 0,0 km/h (0 Bft) 0,00 %
27.10.2014 05:45 5,2 C 86 % 1027,8 hPa 0,0 l/m 2,2 km/h (1 Bft) O 101 0 min 0,000 mm 0,0 UV-I 0 W/m 3,1 C 5,2 C 4,0 km/h (1 Bft) 0,00 %
27.10.2014 06:00 5,2 C 86 % 1028,1 hPa 0,0 l/m 0,0 km/h (0 Bft) O-NO 64 0 min 0,000 mm 0,0 UV-I 0 W/m 3,1 C 5,2 C 0,0 km/h (0 Bft) 0,00 %
27.10.2014 06:15 5,3 C 86 % 1027,9 hPa 0,0 l/m 0,0 km/h (0 Bft) SO 135 0 min 0,000 mm 0,0 UV-I 0 W/m 3,2 C 5,3 C 0,0 km/h (0 Bft) 0,00 %
27.10.2014 06:30 5,3 C 86 % 1028,0 hPa 0,0 l/m 0,0 km/h (0 Bft) N 350 0 min 0,000 mm 0,0 UV-I 0 W/m 3,2 C 5,3 C 0,0 km/h (0 Bft) 0,00 %
27.10.2014 06:45 5,4 C 85 % 1028,1 hPa 0,0 l/m 0,0 km/h (0 Bft) W-SW 254 0 min 0,000 mm 0,0 UV-I 0 W/m 3,1 C 5,4 C 0,0 km/h (0 Bft) 0,00 %
27.10.2014 07:00 5,4 C 83 % 1028,1 hPa 0,0 l/m 0,0 km/h (0 Bft) NW 307 0 min 0,000 mm 0,0 UV-I 0 W/m 2,7 C 5,4 C 0,0 km/h (0 Bft) 0,00 %
27.10.2014 07:15 5,5 C 83 % 1028,3 hPa 0,0 l/m 0,0 km/h (0 Bft) O 100 0 min 0,000 mm 0,0 UV-I 0 W/m 2,8 C 5,5 C 0,0 km/h (0 Bft) 0,00 %
27.10.2014 07:30 5,5 C 82 % 1028,5 hPa 0,0 l/m 0,0 km/h (0 Bft) SO 133 0 min 0,000 mm 0,0 UV-I 8 W/m 2,7 C 5,5 C 0,0 km/h (0 Bft) 0,00 %
27.10.2014 07:45 5,6 C 82 % 1028,4 hPa 0,0 l/m 0,0 km/h (0 Bft) NO 51 0 min 0,000 mm 0,0 UV-I 37 W/m 2,8 C 5,6 C 0,0 km/h (0 Bft) 0,00 %
27.10.2014 08:00 5,7 C 81 % 1028,6 hPa 0,0 l/m 0,0 km/h (0 Bft) N 354 15 min 0,000 mm 0,0 UV-I 56 W/m 2,7 C 5,7 C 0,0 km/h (0 Bft) 0,00 %
27.10.2014 08:15 5,7 C 81 % 1028,6 hPa 0,0 l/m 0,0 km/h (0 Bft) O-NO 70 15 min 0,000 mm 0,0 UV-I 65 W/m 2,7 C 5,7 C 0,0 km/h (0 Bft) 0,00 %
27.10.2014 08:30 5,7 C 81 % 1028,4 hPa 0,0 l/m 0,0 km/h (0 Bft) O 101 15 min 0,000 mm 1,0 UV-I 116 W/m 2,7 C 5,7 C 0,0 km/h (0 Bft) 0,00 %
27.10.2014 08:45 5,7 C 80 % 1028,4 hPa 0,0 l/m 0,0 km/h (0 Bft) O-NO 78 15 min 0,000 mm 1,0 UV-I 136 W/m 2,5 C 5,7 C 0,0 km/h (0 Bft) 0,00 %
27.10.2014 09:00 5,7 C 80 % 1028,7 hPa 0,0 l/m 0,0 km/h (0 Bft) O-NO 74 15 min 0,000 mm 1,0 UV-I 159 W/m 2,5 C 5,7 C 0,0 km/h (0 Bft) 0,00 %
27.10.2014 09:15 5,8 C 80 % 1028,6 hPa 0,0 l/m 0,0 km/h (0 Bft) N 355 15 min 0,000 mm 1,0 UV-I 203 W/m 2,6 C 5,8 C 0,0 km/h (0 Bft) 0,00 %
27.10.2014 09:30 5,7 C 80 % 1028,9 hPa 0,0 l/m 0,0 km/h (0 Bft) O-NO 57 15 min 0,000 mm 1,0 UV-I 228 W/m 2,5 C 5,7 C 0,0 km/h (0 Bft) 0,00 %
27.10.2014 09:45 5,8 C 79 % 1029,1 hPa 0,0 l/m 0,0 km/h (0 Bft) W-NW 298 15 min 0,000 mm 1,0 UV-I 241 W/m 2,4 C 5,8 C 0,0 km/h (0 Bft) 0,00 %
27.10.2014 10:00 5,8 C 79 % 1029,0 hPa 0,0 l/m 0,0 km/h (0 Bft) O 95 15 min 0,000 mm 1,0 UV-I 222 W/m 2,4 C 5,8 C 0,0 km/h (0 Bft) 0,00 %
27.10.2014 10:15 5,9 C 79 % 1028,9 hPa 0,0 l/m 0,0 km/h (0 Bft) SO 134 15 min 0,000 mm 1,0 UV-I 306 W/m 2,5 C 5,9 C 0,0 km/h (0 Bft) 0,00 %
27.10.2014 10:30 6,0 C 79 % 1028,8 hPa 0,0 l/m 0,0 km/h (0 Bft) O-SO 115 15 min 0,000 mm 1,0 UV-I 283 W/m 2,6 C 6,0 C 0,0 km/h (0 Bft) 0,00 %
27.10.2014 10:45 5,9 C 79 % 1028,8 hPa 0,0 l/m 0,0 km/h (0 Bft) S 172 15 min 0,000 mm 1,0 UV-I 315 W/m 2,5 C 5,9 C 0,0 km/h (0 Bft) 0,00 %
27.10.2014 11:00 5,9 C 79 % 1028,5 hPa 0,0 l/m 0,0 km/h (0 Bft) SO 139 15 min 0,000 mm 1,0 UV-I 292 W/m 2,5 C 5,9 C 0,0 km/h (0 Bft) 0,00 %
27.10.2014 11:15 6,1 C 77 % 1028,4 hPa 0,0 l/m 0,0 km/h (0 Bft) O 80 0 min 0,000 mm 1,0 UV-I 221 W/m 2,4 C 6,1 C 0,0 km/h (0 Bft) 0,00 %
27.10.2014 11:30 5,9 C 78 % 1028,3 hPa 0,0 l/m 0,4 km/h (0 Bft) N-NO 19 15 min 0,000 mm 1,0 UV-I 319 W/m 2,4 C 5,9 C 4,0 km/h (1 Bft) 0,00 %
27.10.2014 11:45 5,9 C 79 % 1028,2 hPa 0,0 l/m 0,0 km/h (0 Bft) S 176 15 min 0,000 mm 1,0 UV-I 274 W/m 2,5 C 5,9 C 0,0 km/h (0 Bft) 0,00 %
27.10.2014 12:00 6,0 C 77 % 1028,0 hPa 0,0 l/m 0,0 km/h (0 Bft) O-SO 117 15 min 0,000 mm 1,0 UV-I 272 W/m 2,3 C 6,0 C 0,0 km/h (0 Bft) 0,00 %
27.10.2014 12:15 5,6 C 79 % 1027,9 hPa 0,0 l/m 0,0 km/h (0 Bft) O-NO 74 15 min 0,000 mm 1,0 UV-I 297 W/m 2,3 C 5,6 C 0,0 km/h (0 Bft) 0,00 %
27.10.2014 12:30 5,8 C 78 % 1027,8 hPa 0,0 l/m 0,0 km/h (0 Bft) S-SO 154 15 min 0,000 mm 1,0 UV-I 270 W/m 2,3 C 5,8 C 0,0 km/h (0 Bft) 0,00 %
27.10.2014 12:45 5,9 C 78 % 1027,6 hPa 0,0 l/m 0,0 km/h (0 Bft) SO 129 15 min 0,000 mm 1,0 UV-I 304 W/m 2,4 C 5,9 C 0,0 km/h (0 Bft) 0,00 %
27.10.2014 13:00 6,1 C 77 % 1027,4 hPa 0,0 l/m 0,0 km/h (0 Bft) W-NW 290 15 min 0,000 mm 1,0 UV-I 297 W/m 2,4 C 6,1 C 0,0 km/h (0 Bft) 0,00 %
27.10.2014 13:15 6,3 C 76 % 1027,3 hPa 0,0 l/m 0,0 km/h (0 Bft) O 96 15 min 0,000 mm 1,0 UV-I 522 W/m 2,4 C 6,3 C 0,0 km/h (0 Bft) 0,00 %
27.10.2014 13:30 6,6 C 74 % 1027,1 hPa 0,0 l/m 0,0 km/h (0 Bft) S 175 15 min 0,000 mm 1,0 UV-I 389 W/m 2,3 C 6,6 C 0,0 km/h (0 Bft) 0,00 %
27.10.2014 13:45 6,7 C 73 % 1026,8 hPa 0,0 l/m 0,0 km/h (0 Bft) O-NO 78 15 min 0,000 mm 1,0 UV-I 384 W/m 2,2 C 6,7 C 0,0 km/h (0 Bft) 0,00 %
27.10.2014 14:00 6,7 C 74 % 1026,8 hPa 0,0 l/m 0,0 km/h (0 Bft) SO 128 15 min 0,000 mm 1,0 UV-I 310 W/m 2,4 C 6,7 C 0,0 km/h (0 Bft) 0,00 %
27.10.2014 14:15 6,8 C 74 % 1026,6 hPa 0,0 l/m 0,0 km/h (0 Bft) O-SO 103 15 min 0,000 mm 1,0 UV-I 420 W/m 2,5 C 6,8 C 0,0 km/h (0 Bft) 0,00 %
27.10.2014 14:30 6,9 C 73 % 1026,6 hPa 0,0 l/m 0,0 km/h (0 Bft) O 101 15 min 0,000 mm 1,0 UV-I 376 W/m 2,4 C 6,9 C 0,0 km/h (0 Bft) 0,00 %
27.10.2014 14:45 7,0 C 74 % 1026,3 hPa 0,0 l/m 0,0 km/h (0 Bft) O-NO 72 15 min 0,000 mm 1,0 UV-I 306 W/m 2,7 C 7,0 C 0,0 km/h (0 Bft) 0,00 %
27.10.2014 15:00 7,0 C 73 % 1026,2 hPa 0,0 l/m 0,0 km/h (0 Bft) O-SO 104 15 min 0,000 mm 1,0 UV-I 259 W/m 2,5 C 7,0 C 0,0 km/h (0 Bft) 0,00 %
27.10.2014 15:15 7,0 C 74 % 1026,1 hPa 0,0 l/m 6,5 km/h (2 Bft) O-NO 77 15 min 0,000 mm 1,0 UV-I 232 W/m 2,7 C 6,9 C 11,9 km/h (2 Bft) 0,00 %
27.10.2014 15:30 6,7 C 74 % 1026,2 hPa 0,0 l/m 0,0 km/h (0 Bft) O 97 0 min 0,000 mm 0,0 UV-I 87 W/m 2,4 C 6,7 C 0,0 km/h (0 Bft) 0,00 %
27.10.2014 15:45 6,7 C 74 % 1026,1 hPa 0,0 l/m 0,0 km/h (0 Bft) SO 129 0 min 0,000 mm 0,0 UV-I 87 W/m 2,4 C 6,7 C 0,0 km/h (0 Bft) 0,00 %
27.10.2014 16:00 6,7 C 76 % 1026,2 hPa 0,0 l/m 0,0 km/h (0 Bft) O-NO 58 0 min 0,000 mm 0,0 UV-I 47 W/m 2,8 C 6,7 C 0,0 km/h (0 Bft) 0,00 %
27.10.2014 16:15 6,6 C 76 % 1026,1 hPa 0,0 l/m 0,0 km/h (0 Bft) NO 48 0 min 0,000 mm 0,0 UV-I 0 W/m 2,7 C 6,6 C 0,0 km/h (0 Bft) 0,00 %
27.10.2014 16:30 6,5 C 76 % 1025,9 hPa 0,0 l/m 0,4 km/h (0 Bft) S 174 0 min 0,000 mm 0,0 UV-I 0 W/m 2,6 C 6,5 C 4,0 km/h (1 Bft) 0,00 %
27.10.2014 16:45 6,5 C 77 % 1026,1 hPa 0,0 l/m 6,8 km/h (2 Bft) O 91 0 min 0,000 mm 0,0 UV-I 0 W/m 2,8 C 6,2 C 7,9 km/h (2 Bft) 0,00 %
27.10.2014 17:00 6,6 C 77 % 1026,1 hPa 0,0 l/m 2,2 km/h (1 Bft) O-SO 112 0 min 0,000 mm 0,0 UV-I 0 W/m 2,9 C 6,6 C 7,9 km/h (2 Bft) 0,00 %
27.10.2014 17:15 6,7 C 77 % 1026,2 hPa 0,0 l/m 1,4 km/h (1 Bft) S 182 0 min 0,000 mm 0,0 UV-I 0 W/m 3,0 C 6,7 C 4,0 km/h (1 Bft) 0,00 %
27.10.2014 17:30 6,9 C 77 % 1026,2 hPa 0,0 l/m 8,3 km/h (2 Bft) O 93 0 min 0,000 mm 0,0 UV-I 0 W/m 3,2 C 5,4 C 11,9 km/h (2 Bft) 0,00 %
27.10.2014 17:45 6,9 C 77 % 1026,2 hPa 0,0 l/m 1,8 km/h (1 Bft) O-NO 72 0 min 0,000 mm 0,0 UV-I 0 W/m 3,2 C 6,9 C 4,0 km/h (1 Bft) 0,00 %
27.10.2014 18:00 6,9 C 77 % 1026,2 hPa 0,0 l/m 0,4 km/h (0 Bft) SO 137 0 min 0,000 mm 0,0 UV-I 0 W/m 3,2 C 6,9 C 4,0 km/h (1 Bft) 0,00 %
27.10.2014 18:15 7,0 C 78 % 1026,0 hPa 0,0 l/m 4,7 km/h (1 Bft) S 179 0 min 0,000 mm 0,0 UV-I 0 W/m 3,4 C 7,0 C 7,9 km/h (2 Bft) 0,00 %
27.10.2014 18:30 7,1 C 77 % 1026,1 hPa 0,0 l/m 3,2 km/h (1 Bft) O-SO 104 0 min 0,000 mm 0,0 UV-I 0 W/m 3,3 C 7,1 C 4,0 km/h (1 Bft) 0,00 %
27.10.2014 18:45 7,1 C 77 % 1025,9 hPa 0,0 l/m 12,2 km/h (2 Bft) O 98 0 min 0,000 mm 0,0 UV-I 0 W/m 3,3 C 3,1 C 15,8 km/h (3 Bft) 0,00 %
27.10.2014 19:00 7,2 C 76 % 1025,7 hPa 0,0 l/m 12,2 km/h (2 Bft) SO 141 0 min 0,000 mm 0,0 UV-I 0 W/m 3,3 C 3,2 C 15,8 km/h (3 Bft) 0,00 %
27.10.2014 19:15 7,1 C 76 % 1025,6 hPa 0,0 l/m 2,2 km/h (1 Bft) S 169 0 min 0,000 mm 0,0 UV-I 0 W/m 3,2 C 7,1 C 4,0 km/h (1 Bft) 0,00 %
27.10.2014 19:30 7,1 C 76 % 1025,4 hPa 0,0 l/m 9,0 km/h (2 Bft) O 94 0 min 0,000 mm 0,0 UV-I 0 W/m 3,2 C 5,1 C 15,8 km/h (3 Bft) 0,00 %
27.10.2014 19:45 7,0 C 76 % 1025,4 hPa 0,0 l/m 0,7 km/h (0 Bft) O-NO 68 0 min 0,000 mm 0,0 UV-I 0 W/m 3,1 C 7,0 C 4,0 km/h (1 Bft) 0,00 %
27.10.2014 20:00 6,8 C 76 % 1025,4 hPa 0,0 l/m 7,9 km/h (2 Bft) O-NO 78 0 min 0,000 mm 0,0 UV-I 0 W/m 2,9 C 5,6 C 11,9 km/h (2 Bft) 0,00 %
27.10.2014 20:15 6,6 C 77 % 1025,5 hPa 0,0 l/m 9,7 km/h (2 Bft) O 91 0 min 0,000 mm 0,0 UV-I 0 W/m 2,9 C 4,0 C 15,8 km/h (3 Bft) 0,00 %
27.10.2014 20:30 6,5 C 78 % 1025,6 hPa 0,0 l/m 1,4 km/h (1 Bft) SW 219 0 min 0,000 mm 0,0 UV-I 0 W/m 2,9 C 6,5 C 4,0 km/h (1 Bft) 0,00 %
27.10.2014 20:45 6,3 C 79 % 1025,4 hPa 0,0 l/m 2,9 km/h (1 Bft) S-SO 149 0 min 0,000 mm 0,0 UV-I 0 W/m 2,9 C 6,3 C 4,0 km/h (1 Bft) 0,00 %
27.10.2014 21:00 6,1 C 79 % 1025,6 hPa 0,0 l/m 13,0 km/h (3 Bft) O 93 0 min 0,000 mm 0,0 UV-I 0 W/m 2,7 C 1,5 C 15,8 km/h (3 Bft) 0,00 %
27.10.2014 21:15 6,0 C 79 % 1025,6 hPa 0,0 l/m 13,3 km/h (3 Bft) O-SO 105 0 min 0,000 mm 0,0 UV-I 0 W/m 2,6 C 1,2 C 19,8 km/h (3 Bft) 0,00 %
27.10.2014 21:30 5,9 C 79 % 1025,4 hPa 0,0 l/m 14,4 km/h (3 Bft) O 95 0 min 0,000 mm 0,0 UV-I 0 W/m 2,5 C 0,5 C 24,1 km/h (4 Bft) 0,00 %
27.10.2014 21:45 5,7 C 79 % 1025,4 hPa 0,0 l/m 2,9 km/h (1 Bft) W-SW 248 0 min 0,000 mm 0,0 UV-I 0 W/m 2,3 C 5,7 C 7,9 km/h (2 Bft) 0,00 %
27.10.2014 22:00 5,7 C 79 % 1025,3 hPa 0,0 l/m 11,9 km/h (2 Bft) O 101 0 min 0,000 mm 0,0 UV-I 0 W/m 2,3 C 1,6 C 15,8 km/h (3 Bft) 0,00 %
27.10.2014 22:15 5,6 C 79 % 1025,0 hPa 0,0 l/m 5,8 km/h (2 Bft) O-NO 59 0 min 0,000 mm 0,0 UV-I 0 W/m 2,3 C 5,6 C 7,9 km/h (2 Bft) 0,00 %
27.10.2014 22:30 5,6 C 79 % 1025,1 hPa 0,0 l/m 9,0 km/h (2 Bft) O 89 0 min 0,000 mm 0,0 UV-I 0 W/m 2,3 C 3,5 C 11,9 km/h (2 Bft) 0,00 %
27.10.2014 22:45 5,5 C 79 % 1025,0 hPa 0,0 l/m 16,6 km/h (3 Bft) O 99 0 min 0,000 mm 0,0 UV-I 0 W/m 2,2 C -1,1 C 19,8 km/h (3 Bft) 0,00 %
27.10.2014 23:00 5,4 C 79 % 1024,9 hPa 0,0 l/m 11,5 km/h (2 Bft) O 90 0 min 0,000 mm 0,0 UV-I 0 W/m 2,1 C 1,5 C 11,9 km/h (2 Bft) 0,00 %
27.10.2014 23:15 5,3 C 80 % 1024,7 hPa 0,0 l/m 9,4 km/h (2 Bft) O-NO 72 0 min 0,000 mm 0,0 UV-I 0 W/m 2,1 C 2,8 C 11,9 km/h (2 Bft) 0,00 %
27.10.2014 23:30 5,2 C 80 % 1024,7 hPa 0,0 l/m 0,4 km/h (0 Bft) N 10 0 min 0,000 mm 0,0 UV-I 0 W/m 2,0 C 5,2 C 4,0 km/h (1 Bft) 0,00 %
27.10.2014 23:45 5,1 C 80 % 1024,6 hPa 0,0 l/m 13,3 km/h (3 Bft) O-NO 74 0 min 0,000 mm 0,0 UV-I 0 W/m 1,9 C 0,1 C 15,8 km/h (3 Bft) 0,00 %
_ Min-Zeit 00:00 13:45 23:45 - 00:00 - - - - - - 00:00 22:45 00:00 00:00
Minimum _ 2,4 C 73 % 1024,6 hPa - 0,0 km/h (0 Bft) - - - - - - -0,4 C -1,1 C 0,0 km/h (0 Bft) 0,00 %
_ Max-Zeit 19:00 00:15 09:45 00:00 22:45 - - 08:00 00:00 08:30 13:15 18:15 18:30 21:30 00:00
Maximum _ 7,2 C 87 % 1029,1 hPa 0,0 l/m 16,6 km/h
O (3 Bft)
- - 15 min 0,000 mm 1,0 UV-I 522 W/m 3,4 C 7,1 C 24,1 km/h
O (4 Bft)
0,00 %
Durchschnitt _ 5,7 C 80 % 1027,1 hPa #0,0 l/m 2,4 km/h (1 Bft) O - #7:15 h #0,000 mm 1,0 UV-I 238 W/m 2,6 C 5,1 C 3,8 km/h (1 Bft) 0,00 %